AFL3500 ULLI-URSS

Flight info

Callsign AFL3500
Flight time N/A
Altitude 37000
Route SUGIN1C SUGIN T873 NIRGI DCT OSKAD DCT UPERI DCT OMEZA DCT ABAGI B105 NIMTA DCT SL DCT LIDUS DCT AST DCT DITEK DCT GOTIK DCT MEMZA DCT OKOBA DCT VENFO DCT BINOL BINOL1K
Aircraft A321/M-SDE3FGHIRWY/LB1

Departure

Time 2026-05-07 17:15
Airport Pulkovo Airport (ULLI)

Arrival

Time N/A
Airport Sochi International Airport (URSS)
Time Latitude Longitude Altitude Speed Heading
2026-05-07 16:30 59.80187 30.26525 86 ft 0 kts 286°
2026-05-07 17:07 59.80194 30.26482 82 ft 8 kts 286°
2026-05-07 17:07 59.80248 30.26412 82 ft 14 kts 13°
2026-05-07 17:08 59.80292 30.26435 84 ft 0 kts 15°
2026-05-07 17:09 59.80309 30.26443 83 ft 6 kts 11°
2026-05-07 17:09 59.80361 30.26453 82 ft 10 kts
2026-05-07 17:10 59.80436 30.26473 84 ft 11 kts 339°
2026-05-07 17:10 59.80479 30.26306 85 ft 16 kts 287°
2026-05-07 17:10 59.80517 30.26056 81 ft 22 kts 286°
2026-05-07 17:10 59.80565 30.25732 73 ft 27 kts 287°
2026-05-07 17:11 59.80619 30.25374 70 ft 22 kts 286°
2026-05-07 17:11 59.80659 30.25106 73 ft 16 kts 287°
2026-05-07 17:11 59.80692 30.24891 70 ft 16 kts 287°
2026-05-07 17:11 59.80723 30.24688 64 ft 13 kts 290°
2026-05-07 17:12 59.80794 30.24602 66 ft 12 kts 347°
2026-05-07 17:12 59.80811 30.24595 68 ft 1 kts 347°
2026-05-07 17:12 59.80818 30.24591 68 ft 2 kts 347°
2026-05-07 17:12 59.80865 30.24570 67 ft 12 kts 347°
2026-05-07 17:13 59.80953 30.24608 62 ft 14 kts 68°
2026-05-07 17:13 59.80948 30.24728 61 ft 0 kts 107°
2026-05-07 17:14 59.80947 30.24730 61 ft 3 kts 107°
2026-05-07 17:14 59.80889 30.25116 64 ft 63 kts 107°
2026-05-07 17:15 59.80707 30.26335 79 ft 120 kts 106°
2026-05-07 17:15 59.80422 30.28234 78 ft 165 kts 107°
2026-05-07 17:15 59.80068 30.30578 329 ft 182 kts 107°
2026-05-07 17:15 59.79696 30.32981 957 ft 182 kts 107°
2026-05-07 17:16 59.79337 30.35364 1555 ft 179 kts 104°
2026-05-07 17:16 59.78986 30.37735 2026 ft 178 kts 104°
2026-05-07 17:16 59.78638 30.40092 2487 ft 177 kts 104°
2026-05-07 17:16 59.78292 30.42436 2911 ft 177 kts 104°
2026-05-07 17:17 59.77942 30.44789 3302 ft 181 kts 104°
2026-05-07 17:17 59.77576 30.47250 3445 ft 196 kts 104°
2026-05-07 17:17 59.77172 30.49954 3571 ft 212 kts 104°
2026-05-07 17:17 59.76732 30.52889 3699 ft 231 kts 105°
2026-05-07 17:18 59.76255 30.56076 3939 ft 251 kts 105°
2026-05-07 17:18 59.75755 30.59447 4514 ft 257 kts 104°
2026-05-07 17:18 59.75261 30.62886 5204 ft 260 kts 104°
2026-05-07 17:18 59.74770 30.66359 5885 ft 263 kts 104°
2026-05-07 17:19 59.74273 30.69873 6571 ft 266 kts 104°
2026-05-07 17:19 59.73773 30.73391 7156 ft 270 kts 105°
2026-05-07 17:19 59.73257 30.77003 7734 ft 274 kts 105°
2026-05-07 17:19 59.72730 30.80674 8302 ft 279 kts 104°
2026-05-07 17:20 59.72195 30.84403 8870 ft 284 kts 104°
2026-05-07 17:20 59.71650 30.88190 9449 ft 288 kts 105°
2026-05-07 17:20 59.71094 30.92030 10016 ft 292 kts 106°
2026-05-07 17:20 59.70520 30.95966 10293 ft 306 kts 106°
2026-05-07 17:21 59.69911 31.00135 10430 ft 324 kts 106°
2026-05-07 17:21 59.69267 31.04542 10553 ft 342 kts 106°
2026-05-07 17:21 59.68596 31.09112 10674 ft 359 kts 107°
2026-05-07 17:21 59.67880 31.13961 10826 ft 374 kts 107°
2026-05-07 17:22 59.67144 31.18950 11229 ft 381 kts 107°
2026-05-07 17:22 59.66401 31.24003 11716 ft 385 kts 107°
2026-05-07 17:22 59.65646 31.29110 12206 ft 389 kts 107°
2026-05-07 17:22 59.64880 31.34277 12686 ft 393 kts 107°
2026-05-07 17:23 59.64104 31.39487 13188 ft 397 kts 108°
2026-05-07 17:23 59.63316 31.44754 13715 ft 400 kts 108°
2026-05-07 17:23 59.62521 31.50058 14152 ft 404 kts 108°
2026-05-07 17:23 59.61716 31.55399 14533 ft 408 kts 109°
2026-05-07 17:24 59.60896 31.60808 14867 ft 414 kts 109°
2026-05-07 17:24 59.60074 31.66214 15245 ft 418 kts 109°
2026-05-07 17:24 59.59236 31.71729 15646 ft 421 kts 109°
2026-05-07 17:24 59.58388 31.77299 16035 ft 425 kts 109°
2026-05-07 17:25 59.57530 31.82915 16430 ft 428 kts 109°
2026-05-07 17:25 59.56660 31.88574 16822 ft 432 kts 110°
2026-05-07 17:25 59.55782 31.94262 17205 ft 435 kts 110°
2026-05-07 17:25 59.54896 32.00003 17577 ft 439 kts 110°
2026-05-07 17:26 59.53915 32.05701 17948 ft 439 kts 117°
2026-05-07 17:26 59.52508 32.11023 18323 ft 437 kts 127°
2026-05-07 17:26 59.50717 32.15751 18616 ft 434 kts 137°
2026-05-07 17:26 59.48610 32.19995 18945 ft 434 kts 141°
2026-05-07 17:27 59.46460 32.24184 19287 ft 436 kts 141°
2026-05-07 17:27 59.44304 32.28390 19631 ft 438 kts 141°
2026-05-07 17:27 59.42133 32.32624 19976 ft 440 kts 141°
2026-05-07 17:27 59.39957 32.36869 20324 ft 442 kts 142°
2026-05-07 17:28 59.37767 32.41132 20677 ft 443 kts 142°
2026-05-07 17:28 59.35570 32.45394 21024 ft 445 kts 142°
2026-05-07 17:28 59.33359 32.49672 21340 ft 447 kts 142°
2026-05-07 17:28 59.31138 32.53956 21688 ft 449 kts 143°
2026-05-07 17:29 59.28904 32.58247 22040 ft 450 kts 143°
2026-05-07 17:29 59.26691 32.62495 22337 ft 452 kts 143°
2026-05-07 17:29 59.24447 32.66804 22671 ft 454 kts 143°
2026-05-07 17:29 59.22193 32.71130 23001 ft 455 kts 143°
2026-05-07 17:30 59.19923 32.75473 23328 ft 457 kts 143°
2026-05-07 17:30 59.17645 32.79821 23652 ft 458 kts 143°
2026-05-07 17:30 59.15362 32.84175 23918 ft 460 kts 143°
2026-05-07 17:30 59.13069 32.88535 24184 ft 461 kts 143°
2026-05-07 17:31 59.10763 32.92907 24445 ft 463 kts 143°
2026-05-07 17:31 59.08446 32.97283 24695 ft 464 kts 143°
2026-05-07 17:31 59.06127 33.01665 24947 ft 466 kts 143°
2026-05-07 17:31 59.03797 33.06058 25197 ft 467 kts 143°
2026-05-07 17:32 59.01453 33.10471 25440 ft 469 kts 143°
2026-05-07 17:32 58.99134 33.14824 25674 ft 471 kts 144°
2026-05-07 17:32 58.96771 33.19249 25918 ft 472 kts 144°
2026-05-07 17:32 58.94406 33.23672 26164 ft 474 kts 144°
2026-05-07 17:33 58.92028 33.28110 26408 ft 475 kts 144°
2026-05-07 17:33 58.89645 33.32552 26700 ft 476 kts 144°
2026-05-07 17:33 58.87265 33.36990 27042 ft 474 kts 144°
2026-05-07 17:33 58.84870 33.41451 27390 ft 473 kts 144°
2026-05-07 17:34 58.82533 33.45785 27640 ft 473 kts 144°
2026-05-07 17:34 58.80153 33.50175 27887 ft 474 kts 144°
2026-05-07 17:34 58.77751 33.54590 28202 ft 474 kts 144°
2026-05-07 17:34 58.75360 33.58981 28501 ft 473 kts 144°
2026-05-07 17:35 58.72968 33.63368 28814 ft 473 kts 144°
2026-05-07 17:35 58.70607 33.67699 29125 ft 472 kts 144°
2026-05-07 17:35 58.68253 33.72013 29437 ft 471 kts 144°
2026-05-07 17:35 58.65867 33.76376 29769 ft 470 kts 144°
2026-05-07 17:36 58.63500 33.80688 30070 ft 469 kts 144°
2026-05-07 17:36 58.61143 33.84965 30268 ft 469 kts 144°
2026-05-07 17:36 58.58753 33.89289 30393 ft 471 kts 144°
2026-05-07 17:36 58.56367 33.93606 30571 ft 472 kts 144°
2026-05-07 17:37 58.53977 33.97931 30792 ft 472 kts 144°
2026-05-07 17:37 58.51602 34.02225 31020 ft 472 kts 144°
2026-05-07 17:37 58.49214 34.06539 31250 ft 472 kts 144°
2026-05-07 17:37 58.46838 34.10830 31476 ft 472 kts 144°
2026-05-07 17:38 58.44432 34.15163 31706 ft 472 kts 145°
2026-05-07 17:38 58.42051 34.19425 31935 ft 472 kts 145°
2026-05-07 17:38 58.39658 34.23691 32162 ft 472 kts 145°
2026-05-07 17:38 58.37251 34.27974 32344 ft 472 kts 144°
2026-05-07 17:39 58.34849 34.32244 32510 ft 473 kts 144°
2026-05-07 17:39 58.32424 34.36554 32692 ft 474 kts 144°
2026-05-07 17:39 58.30020 34.40819 32899 ft 474 kts 145°
2026-05-07 17:39 58.27598 34.45107 33111 ft 474 kts 145°
2026-05-07 17:40 58.25186 34.49362 33324 ft 474 kts 145°
2026-05-07 17:40 58.22768 34.53627 33543 ft 474 kts 145°
2026-05-07 17:40 58.20349 34.57749 33750 ft 469 kts 150°
2026-05-07 17:40 58.17704 34.61344 33946 ft 463 kts 154°
2026-05-07 17:41 58.15045 34.64780 34114 ft 463 kts 154°
2026-05-07 17:41 58.12391 34.68208 34231 ft 463 kts 154°
2026-05-07 17:41 58.09723 34.71657 34380 ft 464 kts 153°
2026-05-07 17:41 58.07065 34.75098 34534 ft 463 kts 153°
2026-05-07 17:42 58.04416 34.78519 34690 ft 463 kts 153°
2026-05-07 17:42 58.01756 34.81953 34844 ft 463 kts 153°
2026-05-07 17:42 57.99083 34.85402 35001 ft 463 kts 153°
2026-05-07 17:42 57.96428 34.88821 35154 ft 463 kts 153°
2026-05-07 17:43 57.93753 34.92251 35264 ft 463 kts 153°
2026-05-07 17:43 57.91109 34.95627 35397 ft 463 kts 153°
2026-05-07 17:43 57.88446 34.99021 35526 ft 463 kts 153°
2026-05-07 17:43 57.85785 35.02405 35622 ft 463 kts 153°
2026-05-07 17:44 57.83101 35.05816 35740 ft 463 kts 153°
2026-05-07 17:44 57.80462 35.09162 35870 ft 463 kts 152°
2026-05-07 17:44 57.77783 35.12556 35996 ft 463 kts 152°
2026-05-07 17:44 57.75105 35.15943 36115 ft 463 kts 152°
2026-05-07 17:45 57.72426 35.19321 36259 ft 462 kts 152°
2026-05-07 17:45 57.69767 35.22673 36382 ft 462 kts 152°
2026-05-07 17:45 57.67122 35.26002 36494 ft 461 kts 152°
2026-05-07 17:45 57.64446 35.29370 36640 ft 460 kts 152°
2026-05-07 17:46 57.59148 35.36019 36906 ft 457 kts 152°
2026-05-07 17:46 57.53860 35.42618 36962 ft 459 kts 152°
2026-05-07 17:47 57.48515 35.49259 36957 ft 463 kts 152°
2026-05-07 17:47 57.43151 35.55904 36958 ft 466 kts 152°
2026-05-07 17:48 57.37761 35.62552 36942 ft 467 kts 152°
2026-05-07 17:48 57.32350 35.69211 36925 ft 467 kts 151°
2026-05-07 17:49 57.26907 35.75885 36948 ft 467 kts 152°
2026-05-07 17:49 57.21486 35.82495 36950 ft 467 kts 152°
2026-05-07 17:50 57.16099 35.89058 36945 ft 466 kts 152°
2026-05-07 17:50 57.11589 35.94536 36939 ft 466 kts 152°
2026-05-07 17:51 57.06140 36.01134 36922 ft 466 kts 152°
2026-05-07 17:51 57.00728 36.07654 36931 ft 466 kts 152°
2026-05-07 17:52 56.95320 36.14146 36934 ft 466 kts 152°
2026-05-07 17:52 56.94419 36.15227 36934 ft 466 kts 152°
2026-05-07 17:53 56.84473 36.27107 36895 ft 465 kts 152°
2026-05-07 17:53 56.79071 36.33523 36901 ft 464 kts 151°
2026-05-07 17:54 56.73663 36.39966 36918 ft 464 kts 151°
2026-05-07 17:54 56.68275 36.46368 36919 ft 463 kts 151°
2026-05-07 17:55 56.62873 36.52742 36919 ft 463 kts 151°
2026-05-07 17:55 56.57477 36.59085 36918 ft 463 kts 151°
2026-05-07 17:56 56.52080 36.65414 36917 ft 463 kts 151°
2026-05-07 17:56 56.46652 36.71763 36916 ft 463 kts 152°
2026-05-07 17:57 56.41263 36.78036 36913 ft 462 kts 152°
2026-05-07 17:57 56.35857 36.84328 36911 ft 462 kts 152°
2026-05-07 17:58 56.30422 36.90623 36897 ft 462 kts 152°
2026-05-07 17:58 56.25019 36.96844 36894 ft 462 kts 151°
2026-05-07 17:59 56.19592 37.03078 36905 ft 461 kts 151°
2026-05-07 17:59 56.14214 37.09246 36906 ft 461 kts 151°
2026-05-07 18:00 56.08814 37.15417 36904 ft 460 kts 151°
2026-05-07 18:00 56.03408 37.21571 36891 ft 460 kts 151°
2026-05-07 18:01 55.98016 37.27678 36902 ft 460 kts 151°
2026-05-07 18:01 55.92580 37.33816 36904 ft 460 kts 151°
2026-05-07 18:02 55.84486 37.42922 36908 ft 460 kts 151°
2026-05-07 18:03 55.79060 37.49009 36892 ft 460 kts 151°
2026-05-07 18:03 55.73621 37.55095 36900 ft 461 kts 151°
2026-05-07 18:04 55.68213 37.61124 36899 ft 461 kts 151°
2026-05-07 18:04 55.62768 37.67156 36907 ft 461 kts 151°
2026-05-07 18:05 55.57334 37.73162 36907 ft 461 kts 151°
2026-05-07 18:05 55.51908 37.79152 36902 ft 461 kts 151°
2026-05-07 18:06 55.46452 37.85138 36903 ft 461 kts 151°
2026-05-07 18:06 55.41012 37.91096 36904 ft 461 kts 151°
2026-05-07 18:07 55.35556 37.97116 36908 ft 462 kts 150°
2026-05-07 18:07 55.30154 38.03304 36909 ft 462 kts 149°
2026-05-07 18:08 55.24792 38.09487 36901 ft 462 kts 149°
2026-05-07 18:08 55.19406 38.15620 36903 ft 462 kts 150°
2026-05-07 18:09 55.14002 38.21685 36910 ft 462 kts 150°
2026-05-07 18:09 55.08598 38.27746 36909 ft 463 kts 150°
2026-05-07 18:10 55.03176 38.33851 36909 ft 462 kts 149°
2026-05-07 18:10 54.97768 38.39905 36917 ft 462 kts 149°
2026-05-07 18:11 54.92342 38.45942 36925 ft 462 kts 149°
2026-05-07 18:11 54.86962 38.51915 36921 ft 462 kts 149°
2026-05-07 18:12 54.81539 38.57920 36922 ft 462 kts 149°
2026-05-07 18:12 54.76728 38.65306 36917 ft 465 kts 129°
2026-05-07 18:13 54.73515 38.74989 36921 ft 466 kts 114°
2026-05-07 18:13 54.70971 38.85344 36920 ft 467 kts 114°
2026-05-07 18:14 54.68418 38.95601 36921 ft 467 kts 114°
2026-05-07 18:14 54.65823 39.05956 36921 ft 467 kts 114°
2026-05-07 18:15 54.63245 39.16235 36925 ft 467 kts 114°
2026-05-07 18:15 54.60659 39.26524 36927 ft 467 kts 114°
2026-05-07 18:16 54.58076 39.36743 36938 ft 467 kts 114°
2026-05-07 18:16 54.55465 39.47017 36936 ft 467 kts 114°
2026-05-07 18:17 54.52867 39.57182 36934 ft 466 kts 114°
2026-05-07 18:17 54.50245 39.67399 36935 ft 466 kts 114°
2026-05-07 18:18 54.47618 39.77607 36938 ft 466 kts 115°
2026-05-07 18:18 54.44991 39.87732 36938 ft 466 kts 115°
2026-05-07 18:19 54.42345 39.97906 36937 ft 466 kts 115°
2026-05-07 18:19 54.39703 40.08026 36936 ft 465 kts 115°
2026-05-07 18:20 54.37038 40.18165 36942 ft 465 kts 115°
2026-05-07 18:20 54.34383 40.28232 36941 ft 465 kts 115°
2026-05-07 18:21 54.31708 40.38344 36940 ft 465 kts 115°
2026-05-07 18:21 54.29013 40.48458 36940 ft 465 kts 115°
2026-05-07 18:22 54.26322 40.58499 36948 ft 465 kts 115°
2026-05-07 18:22 54.23634 40.68512 36948 ft 464 kts 115°
2026-05-07 18:23 54.20939 40.78528 36947 ft 464 kts 115°
2026-05-07 18:23 54.18228 40.88574 36948 ft 464 kts 115°
2026-05-07 18:24 54.15510 40.98593 36947 ft 464 kts 115°
2026-05-07 18:24 54.12800 41.08498 36953 ft 463 kts 115°
2026-05-07 18:25 54.10076 41.18436 36950 ft 463 kts 115°
2026-05-07 18:25 54.08238 41.25109 36953 ft 463 kts 116°
2026-05-07 18:26 54.04581 41.38307 36955 ft 463 kts 116°
2026-05-07 18:26 54.01825 41.48206 36951 ft 462 kts 116°